Location: Unspecified
(43.4354°N, 0.0000°E)
Time: 19:32:14
(UTC+00:00)

Vanguard 2 Rocket - Pass Details

Date: 24 June 2019
Orbit: 554 x 3326 km, 32.9° (Epoch: 18 July)

Event Time Altitude Azimuth Distance (km) Brightness Sun altitude
Rises 02:04:59 0° 272° (W) 5,333 10.6 -17.5°
Reaches altitude 10° 02:08:19 10° 265° (W) 4,674 10.2 -17.2°
Maximum altitude 02:20:58 39° 203° (SSW) 3,793 9.5 -16.0°
Drops below altitude 10° 02:38:14 10° 143° (SE) 6,275 11.0 -14.2°
Sets 02:43:41 0° 137° (SE) 7,282 11.4 -13.6°
